Location: Unspecified
(0.0000°N, 0.0000°E)
Time: 15:33:17
(UTC+00:00)

Courier 1B - Pass Details

Date: 11 February 2026
Orbit: 962 x 1208 km, 28.3° (Epoch: 16 March)

Event Time Altitude Azimuth Distance (km) Brightness Sun altitude
Rises 21:16:42 0° 284° (WNW) 4,006 11.3 -44.0°
Reaches altitude 10° 21:21:01 10° 307° (NW) 3,084 10.3 -45.0°
Enters shadow 21:22:01 12° 314° (NW) 2,942 10.2 -45.2°
